Home   Weather   Kunduz   Past weeks

Flag for Afghanistan Past Weather in Kunduz, Afghanistan — Yesterday and Last 2 Weeks

Now
39 °F

Mostly cloudy.


Feels Like: 31 °F
Forecast: 33 / 36 °F
Wind: 14 mph from Southwest

Location: Termez Airport

Current Time: Dec 9, 2016 at 2:31:05 pm

Latest Report: Dec 9, 2016 at 1:30 pm


Visibility: 4 mi

Pressure: 30.09 "Hg

Humidity: 75%

Dew Point: 32 °F

Location of KunduzLocation

Past Weather in Kunduz — Graph

°F

Kunduz Temperature Yesterday

Maximum temperature yesterday: 57 °F (at 12:30 pm)
Minimum temperature yesterday: 43 °F (at 2:30 am)
Average temperature yesterday: 49 °F

High & Low Weather Summary for the Past Weeks

 TemperatureHumidityPressure
High75 °F (Dec 4, 2:00 pm)93% (Nov 25, 5:00 am)30.77 "Hg (Nov 25, 5:00 am)
Low14 °F (Nov 27, 5:30 am)23% (Dec 2, 1:30 pm)29.98 "Hg (Dec 6, 11:30 pm)
Average44 °F70%30.26 "Hg
* Reported Nov 24 12:30 pm — Dec 9 1:00 pm, Kunduz, Weather by CustomWeather, © 2016

Note: Actual official high and low records may vary slightly from our data, if they occured in-between our weather recording intervals... More about our weather records

Advertising

Kunduz Weather History for the Previous 24 Hours

Scroll right to see more
 ConditionsComfort  
Time TempWeatherWind HumidityBarometerVisibility
1:00 pm
Fri, Dec 9
39 °FMostly cloudy.14 mph75%30.09 "Hg4 mi
12:30 pm39 °FFog.16 mph81%30.12 "Hg3 mi
12:00 pm39 °FFog.17 mph75%30.12 "Hg3 mi
11:30 am39 °FFog.17 mph81%30.15 "Hg3 mi
11:00 am39 °FFog.16 mph81%30.18 "Hg3 mi
10:30 am39 °FFog.16 mph81%30.18 "Hg3 mi
9:30 am39 °FFog.16 mph81%30.21 "Hg3 mi
9:00 am39 °FFog.15 mph87%30.21 "Hg3 mi
8:30 am39 °FFog.17 mph87%30.21 "Hg3 mi
8:00 am39 °FFog.20 mph87%30.21 "Hg2 mi
7:30 am39 °FFog.20 mph87%30.21 "Hg2 mi
7:00 am41 °FFog.21 mph81%30.21 "Hg2 mi
6:30 am41 °FSprinkles. Fog.21 mph81%30.21 "Hg2 mi
6:00 am41 °FSprinkles. Fog.18 mph87%30.21 "Hg2 mi
5:30 am41 °FSprinkles. Fog.20 mph87%30.21 "Hg2 mi
4:30 am45 °FSprinkles. Fog.18 mph81%30.18 "Hg2 mi
4:00 am46 °FSprinkles. Fog.18 mph82%30.18 "Hg2 mi
3:30 am46 °FFog.16 mph82%30.18 "Hg3 mi
2:30 am48 °FFog.15 mph76%30.21 "Hg3 mi
1:30 am48 °FPassing clouds.9 mph82%30.21 "Hg4 mi
12:30 am48 °FFog.7 mph87%30.18 "Hg2 mi
11:30 pm
Thu, Dec 8
50 °FFog.7 mph82%30.18 "Hg3 mi
10:30 pm50 °FPassing clouds.8 mph76%30.18 "Hg4 mi
10:00 pm48 °FFog.8 mph82%30.18 "Hg3 mi
9:30 pm48 °FFog.8 mph82%30.18 "Hg3 mi
9:00 pm48 °FFog.8 mph82%30.18 "Hg3 mi
8:30 pm48 °FFog.9 mph82%30.18 "Hg3 mi
8:00 pm50 °FFog.10 mph82%30.15 "Hg3 mi
7:30 pm50 °FFog.9 mph82%30.15 "Hg3 mi
7:00 pm50 °FFog.10 mph82%30.15 "Hg3 mi
6:30 pm50 °FFog.10 mph82%30.15 "Hg3 mi
6:00 pm52 °FFog.9 mph77%30.15 "Hg3 mi
5:30 pm52 °FPassing clouds.6 mph77%30.15 "Hg3 mi
5:00 pm54 °FPassing clouds.6 mph72%30.15 "Hg4 mi
4:30 pm54 °FPartly sunny.7 mph67%30.15 "Hg4 mi
4:00 pm55 °FPartly sunny.6 mph67%30.12 "Hg4 mi
3:30 pm55 °FPartly sunny.8 mph67%30.12 "Hg4 mi
3:00 pm55 °FPartly sunny.8 mph63%30.12 "Hg4 mi
2:30 pm55 °FSprinkles. Partly sunny.7 mph63%30.15 "Hg4 mi
2:00 pm57 °FSprinkles. Partly sunny.9 mph59%30.12 "Hg3 mi
Weather by CustomWeather, © 2016

See weather overviewHow to use our weather pages